SCP
0 0 1 0 0 0 0 0 1 2 2 2 1 1 2 2 1 1 1 2 2 2 1 2 2 3 2 2 2 2 2 2 2 1 1 1 1 1 1 1 1 1 1 1
0 1 1 1 1 1 1 1 1 2 2 2 1 2 2 2 2 2 2 2 2 2 1 2 2 3 2 2 2 2 2 2 2 2 1 1 1 2 2 1 1 1 1 1
1 1 1 1 1 1 1 1 1 2 2 2 2 2 2 2 3 3 2 2 2 1 1 1 2 2 2 2 2 2 2 2 2 1 1 1 1 2 1 1 1 1 1 1
1 1 1 1 1 1 2 2 2 2 3 4 4 4 4 3 3 3 2 1 1 1 1 1 1 1 1 1 1 1 1 1 1 1 1 1 1 1 1 1 1 1 1 1
1 1 1 1 1 2 3 3 3 3 4 5 6 6 6 4 3 2 2 1 1 1 1 1 0 0 0 0 0 0 0 0 0 0 0 1 1 1 1 1 1 1 1 1
0 1 1 1 1 2 3 3 3 3 4 5 6 7 7 5 4 3 1 1 1 0 0 0 0 0 0 0 0 0 0 0 0 0 0 0 0 0 0 0 1 1 1 1
0 1 1 1 1 1 2 2 2 3 4 5 8 9 7 4 3 2 1 0 0 0 0 0 0 0 0 0 0 0 0 0 0 0 0 0 0 0 0 0 0 0 0 0
1 1 1 1 1 1 1 1 2 2 4 6 8 8 5 2 1 1 0 0 0 0 0 0 0 0 0 0 0 0 0 0 0 0 0 0 0 0 0 0 0 0 0 0
1 1 1 1 1 1 1 2 2 2 3 4 5 4 2 1 1 0 0 0 0 0 0 0 0 0 0 0 0 0 0 0 0 0 0 0 0 0 0 0 0 0 0 0
0 0 1 1 1 1 2 2 2 1 2 3 2 2 1 1 0 0 0 0 0 0 0 0 0 0 0 0 0 0 0 0 0 0 0 0 0 0 0 0 0 0 0 0
0 0 0 1 1 1 1 2 1 1 2 2 2 1 0 0 0 0 0 0 0 0 0 0 0 0 0 0 0 0 0 0 0 0 0 0 0 0 0 0 0 0 0 0
0 0 0 0 1 1 1 1 1 1 1 2 1 0 0 0 0 0 0 0 0 0 0 0 0 0 0 0 0 0 0 0 0 0 0 0 0 0 0 0 0 0 0 0
0 0 0 0 0 0 1 1 1 1 1 1 0 0 0 0 0 0 0 0 0 0 0 0 0 0 0 0 0 0 0 0 0 0 0 0 0 0 0 0 0 0 0 0
0 0 0 0 0 0 0 0 0 0 0 0 0 0 0 0 0 0 0 0 0 0 0 0 0 0 0 0 0 0 0 0 0 0 0 0 0 0 0 0 0 0 0 0
0 0 0 0 0 0 0 0 0 0 0 0 0 0 0 0 0 0 0 0 0 0 0 0 0 0 0 0 0 0 0 0 0 0 0 0 0 0 0 0 0 0 0 0
0 0 0 0 0 0 0 0 0 0 0 0 0 0 0 0 0 0 0 0 0 0 0 0 0 0 0 0 0 0 0 0 0 0 0 0 0 0 0 0 0 0 0 0
0 0 0 0 0 0 0 0 0 0 0 0 0 0 0 0 0 0 0 0 0 0 0 0 0 0 0 0 0 0 0 0 0 0 0 0 0 0 0 0 0 0 0 0
0 0 0 0 0 0 0 0 0 0 0 0 0 0 0 0 0 0 0 0 0 0 0 0 0 0 0 0 0 0 0 0 0 0 0 0 0 0 0 0 0 0 0 0
0 0 0 0 0 0 0 0 0 0 0 0 0 0 0 0 0 0 0 0 0 0 0 0 0 0 0 0 0 0 0 0 0 0 0 0 0 0 0 0 0 0 0 0
0 0 0 0 0 0 0 0 0 0 0 0 0 0 0 0 0 0 0 0 0 0 0 0 0 0 0 0 0 0 0 0 0 0 0 0 0 0 0 0 0 0 0 0
0 0 0 0 0 0 0 0 0 0 0 0 0 0 0 0 0 0 0 0 0 0 0 0 0 0 0 0 0 0 0 0 0 0 0 0 0 0 0 0 0 0 0 0
0 0 0 0 0 0 0 0 0 0 0 0 0 0 0 0 0 0 0 0 0 0 0 0 0 0 0 0 0 0 0 0 0 0 0 0 0 0 0 0 0 0 0 0
0 0 0 0 0 0 0 0 0 0 0 0 0 0 0 0 0 0 0 0 0 0 0 0 0 0 0 0 0 0 0 0 0 0 0 0 0 0 0 0 0 0 0 0
0 0 0 0 0 0 0 0 0 0 0 0 0 0 0 0 0 0 0 0 0 0 0 0 0 0 0 0 0 0 0 0 0 0 0 0 0 0 0 0 0 0 0 0
0 0 0 0 0 0 0 0 0 0 0 0 0 0 0 0 0 0 0 0 0 0 0 0 0 0 0 0 0 0 0 0 0 0 0 0 0 0 0 0 0 0 0 0
0 0 0 0 0 0 0 0 0 0 0 0 0 0 0 0 0 0 0 0 0 0 0 0 0 0 0 0 0 0 0 0 0 0 0 0 0 0 0 0 0 0 0 0
0 0 0 0 0 0 0 0 0 0 0 0 0 0 0 0 0 0 0 0 0 0 0 0 0 0 0 0 0 0 0 0 0 0 0 0 0 0 0 0 0 0 0 0
Wind_Speed
4 4 3 4 6 7 6 8 8 7 8 10 10 9 6 5 5 5 4 5 6 7 7 7 7 6 7 6 6 7 7 7 7 6 5 4 4 5 5 5 6 6 6 5
4 3 3 4 6 6 5 5 6 6 4 4 5 4 4 4 6 6 5 6 6 6 7 7 7 7 6 6 5 5 5 4 3 2 2 2 2 2 2 3 3 3 4 4
4 5 3 3 4 4 3 4 8 8 8 7 7 7 6 6 7 7 7 7 7 6 6 6 6 7 7 7 7 7 6 4 4 3 3 2 2 2 1 0 0 1 2 2
2 1 5 6 3 3 1 1 3 6 9 10 9 8 6 6 8 9 9 9 8 7 8 7 7 8 8 8 8 9 8 6 6 5 5 5 5 4 2 2 2 2 2 2
2 3 5 4 3 3 1 2 3 10 12 12 13 12 9 7 9 10 10 10 9 9 10 10 9 9 11 10 10 10 8 7 6 6 6 6 5 4 3 4 4 3 3 4
3 4 6 4 3 3 3 1 2 9 13 12 9 6 4 6 10 12 11 10 10 10 11 11 9 9 13 11 10 9 7 7 6 6 6 5 4 3 3 4 4 4 5 5
4 4 5 2 5 2 3 5 4 6 10 8 5 7 10 10 11 11 11 11 11 12 11 9 8 10 13 10 8 6 6 7 6 6 5 5 4 4 5 5 6 6 6 5
3 3 6 2 1 2 3 1 4 5 8 11 14 16 13 12 11 11 12 11 11 12 11 8 8 11 12 9 6 6 6 6 5 4 4 5 5 4 4 5 5 5 5 4
3 4 3 2 2 2 2 4 4 8 11 14 16 15 14 12 11 11 11 10 9 11 11 8 7 9 10 6 5 6 6 6 5 4 4 3 4 4 3 3 3 3 3 2
1 3 3 3 2 2 1 3 6 11 14 15 16 15 14 12 10 10 10 9 9 10 10 7 6 7 7 5 5 6 6 5 4 4 4 4 3 2 2 2 2 2 2 2
2 1 2 4 2 2 6 9 11 12 15 16 17 16 14 12 10 9 8 7 8 9 9 7 6 6 5 5 6 7 6 5 4 4 4 3 3 2 2 1 2 3 2 2
4 3 3 1 2 5 10 12 13 15 14 12 13 14 13 11 9 9 8 8 8 8 8 6 6 5 4 5 6 6 5 4 3 3 3 3 3 4 7 6 7 8 7 5
2 5 6 6 7 9 12 12 13 14 16 15 12 13 13 11 9 9 9 9 8 7 7 6 6 5 4 4 5 5 4 3 2 3 3 3 2 3 3 6 10 11 10 8
6 9 10 8 10 12 15 16 16 15 14 13 12 12 12 10 9 9 8 7 7 7 6 6 6 4 3 4 5 4 3 4 3 2 3 3 3 3 3 3 3 4 5 8
8 10 11 12 13 13 14 16 16 14 13 12 11 11 11 10 9 7 6 7 8 7 6 6 6 4 3 4 5 4 3 2 3 3 3 4 4 4 4 4 4 3 3 5
12 13 13 14 14 13 13 14 14 12 11 11 10 9 9 9 8 7 6 7 8 6 5 5 5 2 3 5 5 4 3 6 5 4 4 4 4 5 4 4 3 3 3 3
13 11 12 14 13 12 11 11 11 10 10 10 9 8 8 8 8 7 6 6 7 5 4 4 3 2 4 4 4 3 3 4 7 5 4 4 4 4 4 3 3 2 2 3
10 10 10 12 12 11 10 9 9 9 8 8 8 8 7 7 6 5 5 5 6 5 3 2 3 3 4 4 3 3 3 3 3 4 3 4 3 3 3 2 2 2 2 3
13 12 12 12 10 10 9 8 7 7 7 7 7 6 6 5 5 4 5 5 5 3 1 2 5 4 4 4 4 3 3 4 4 4 3 4 4 3 2 2 2 2 2 3
12 11 12 11 10 9 8 7 7 7 6 7 7 6 5 4 5 5 6 4 2 2 2 3 4 4 3 4 5 3 4 4 4 3 3 3 2 2 2 1 2 2 2 3
10 10 10 9 8 7 7 7 7 6 5 6 6 5 4 4 5 5 6 4 1 2 4 6 4 3 3 4 6 4 4 4 3 3 2 2 2 2 2 2 2 2 3 3
8 8 8 8 7 6 5 5 6 6 5 5 5 6 6 6 6 5 4 3 2 5 4 3 3 4 6 6 4 4 3 3 3 2 2 2 1 1 2 3 3 3 3 3
6 6 7 6 6 5 5 5 5 5 5 4 5 6 6 5 4 5 4 2 3 6 4 3 5 8 8 5 4 4 3 3 3 2 2 2 1 1 2 3 3 3 3 3
6 6 5 5 6 6 5 3 4 4 4 4 4 5 6 5 3 3 4 5 7 6 3 3 7 8 7 3 3 3 3 2 2 2 2 2 2 2 2 3 3 3 3 4
5 4 5 6 5 4 3 3 4 4 5 4 4 5 4 4 5 4 4 4 6 5 3 3 6 6 4 2 2 2 1 1 1 2 2 2 2 2 2 2 2 3 3 3
4 3 3 4 3 3 3 3 3 2 3 4 3 3 4 4 5 4 4 4 5 4 3 2 2 3 2 2 2 2 1 1 2 2 2 2 2 2 2 2 3 2 3 3
4 3 3 3 3 3 3 3 3 3 3 4 4 3 3 4 3 4 4 3 3 2 2 2 1 1 2 2 2 2 2 2 2 2 2 2 2 2 2 2 2 2 2 3
Wind_Direction
243 242 221 228 231 205 184 181 179 200 187 204 195 190 187 170 152 140 133 141 158 163 165 165 166 171 174 175 176 179 176 187 199 199 200 200 203 211 211 207 208 202 200 206
320 321 300 277 257 228 212 193 179 157 201 205 170 142 135 142 140 141 134 134 134 137 143 149 157 161 157 148 143 137 143 166 166 150 161 186 202 213 221 227 225 203 200 206
288 306 342 271 252 236 225 196 163 178 193 158 137 137 149 143 128 124 123 120 121 128 134 133 132 134 129 126 119 115 115 108 99 104 107 100 96 85 89 69 89 159 179 178
230 9 242 247 294 323 98 68 140 135 141 138 127 109 94 101 111 106 103 100 97 98 97 96 98 98 97 93 94 95 93 88 86 92 92 82 74 71 63 67 70 71 79 100
173 211 266 298 351 3 96 51 93 124 122 118 112 85 58 62 96 102 98 94 89 89 91 90 91 96 96 89 88 88 88 84 85 90 89 84 77 66 61 69 66 61 62 74
171 189 222 236 306 329 82 113 196 138 140 143 125 113 127 102 97 97 93 91 90 85 83 81 78 87 90 87 86 86 89 89 87 89 91 90 86 75 65 76 76 71 65 68
187 211 245 266 300 346 153 208 192 153 143 139 125 127 128 117 102 100 97 93 92 89 83 80 82 88 87 84 83 88 89 87 85 86 91 90 83 73 73 75 71 67 68 66
165 187 239 303 319 178 198 147 138 123 120 111 109 111 114 111 108 105 100 95 95 94 87 78 79 87 85 80 78 77 76 75 74 74 80 84 77 68 73 83 82 79 77 65
197 211 244 260 220 210 132 125 133 123 121 122 121 122 119 116 113 108 105 100 98 99 93 80 75 85 90 84 76 72 67 62 59 55 54 67 80 79 76 84 93 89 90 86
254 262 290 343 19 26 98 130 126 129 130 127 123 122 119 117 115 111 107 104 103 100 96 87 78 80 89 87 77 71 61 49 44 45 39 42 53 75 91 98 100 100 104 108
224 242 19 18 21 112 129 118 115 120 126 129 128 126 125 123 121 118 112 107 103 103 102 99 91 83 81 82 79 70 58 45 40 42 42 37 34 39 64 83 135 128 124 123
212 192 136 136 163 121 111 115 120 123 116 116 120 121 120 117 116 116 113 108 105 105 107 105 97 85 73 75 79 72 54 39 35 36 34 38 41 35 43 56 71 83 91 96
148 117 109 108 99 97 104 109 112 113 117 117 112 116 115 112 111 110 110 110 113 114 110 102 93 83 70 71 73 70 62 43 33 30 28 28 43 61 48 38 57 68 68 62
104 101 92 92 96 98 101 103 102 100 102 105 107 108 108 106 105 107 110 114 113 107 101 96 90 80 68 71 69 61 49 38 39 32 36 46 56 63 74 75 56 40 38 35
83 94 104 102 97 96 99 102 101 99 99 98 102 105 108 108 109 110 110 107 100 95 95 95 89 74 55 64 64 54 41 25 38 51 56 61 64 66 65 67 63 45 22 8
96 96 100 101 100 101 102 103 104 104 103 103 104 107 108 108 105 100 98 103 103 102 103 100 95 77 61 61 57 46 33 46 64 68 65 66 65 66 62 60 56 46 31 3
109 107 108 106 104 102 103 107 111 112 109 109 110 108 103 100 95 95 98 104 108 109 107 105 105 85 66 61 58 47 42 52 67 73 71 73 73 73 69 63 52 36 7 360
101 107 112 114 114 109 105 104 106 109 114 118 115 110 110 113 117 122 121 112 99 83 72 104 108 87 62 52 58 60 70 68 70 78 79 75 74 70 70 64 47 29 351 346
97 98 99 101 106 108 110 111 110 110 112 112 111 113 118 124 127 125 118 110 109 106 68 79 92 82 62 43 64 72 78 80 74 70 74 75 70 62 58 48 18 351 336 334
95 98 100 99 99 103 107 109 110 110 114 114 111 109 111 120 125 120 109 103 122 154 135 92 81 71 53 49 75 78 80 81 82 79 73 69 66 53 38 16 348 332 328 326
89 90 93 95 94 97 107 117 118 116 115 115 119 124 124 117 116 117 111 99 41 81 89 86 80 70 57 72 79 80 83 82 81 79 74 64 52 35 11 354 345 336 334 334
82 82 84 87 87 82 82 94 102 105 105 109 121 121 112 105 103 96 92 114 115 100 90 80 76 79 83 82 76 77 80 80 73 68 62 50 46 24 357 353 351 350 350 347
83 84 86 88 91 90 79 78 87 96 100 108 118 124 127 130 130 126 118 110 107 102 96 90 91 88 87 82 83 80 77 73 66 60 53 44 38 21 6 5 5 2 1 360
84 85 88 89 87 85 78 71 81 89 91 91 103 117 121 113 88 83 118 124 123 115 106 109 99 94 90 83 87 88 79 65 56 47 47 47 42 34 29 27 20 13 10 10
93 86 80 84 89 99 108 98 85 78 81 81 84 95 111 127 133 138 133 133 133 124 117 107 104 100 94 88 88 97 99 86 90 79 59 58 47 42 35 32 29 22 13 7
101 97 93 96 109 113 112 105 101 99 99 92 81 86 96 104 117 124 131 142 147 141 136 125 116 109 107 103 97 98 97 76 67 67 68 65 52 51 47 40 31 20 7 0
83 84 78 69 61 73 86 93 101 106 115 121 115 112 116 117 120 128 130 131 134 131 130 135 140 134 121 116 116 115 111 93 81 80 75 64 56 56 52 45 29 17 7 357